Date String (YYYY-MM-DD hh:mm:ss) UTC,Instrument flags,absolute air pressure of the measurement (hPa),sample flow rate (lpm),inlet stack bypass flow (lpm),air temperature of the measurement (°C),ambient temperature measured by the external sensor (°C),aerosol sample conditioner tube jacket temperature (°C),OPC LED temperature (°C),internal box temperature (°C),relative humidity of the measurement (%),span deviation,mass concentration of particles derived from Lorenz-Mie calculation of OPC scattering (μg/m³),mass concentration of particles derived from Lorenz-Mie calculation of OPC scattering (μg/m³),mass concentration of particles derived from Lorenz-Mie calculation of OPC scattering (μg/m³)
DateTimeUTC,F1_M11,P_M11,Q1_M11,Q2_M11,T1_M11,T2_M11,T3_M11,T4_M11,T5_M11,U1_M11,ZSPAN_M11,X0_M11,X2_M11,X1_M11
2024-01-05 15:00:00,SystemResetWarning,0823.5,4.99,000.00,018.8,018.0,000.0,027.1,020.0,17.8,0000.9,0009.17,0006.28,0005.99
2024-01-05 15:01:00,SystemResetWarning,0823.5,4.99,000.00,018.8,018.0,000.0,027.1,020.0,17.8,0000.5,0009.18,0006.26,0005.97
2024-01-05 15:02:00,SystemResetWarning,0823.5,5.00,000.00,018.8,018.0,000.0,027.1,020.0,18.0,0000.6,0009.15,0006.22,0005.94
2024-01-05 15:03:00,SystemResetWarning,0823.5,5.01,000.00,018.8,017.9,000.0,027.1,020.0,18.1,0001.1,0009.17,0006.22,0005.93
2024-01-05 15:04:00,SystemResetWarning,0823.5,5.01,000.00,018.8,017.9,000.0,027.1,020.0,18.2,0001.2,0008.86,0006.21,0005.93
2024-01-05 15:05:00,SystemResetWarning,0823.5,5.00,000.00,018.7,017.9,000.0,027.1,020.0,18.3,0000.9,0008.86,0006.21,0005.93
2024-01-05 15:06:00,SystemResetWarning,0823.5,4.99,000.00,018.7,017.9,000.0,027.1,020.0,18.4,0000.8,0008.87,0006.21,0005.92
2024-01-05 15:07:00,SystemResetWarning,0823.5,4.99,000.00,018.7,017.9,000.0,027.1,020.0,18.5,0001.2,0008.89,0006.22,0005.93
2024-01-05 15:08:00,SystemResetWarning,0823.5,5.00,000.00,018.7,017.9,000.0,027.1,020.0,18.7,0001.2,0008.85,0006.22,0005.95
2024-01-05 15:09:00,SystemResetWarning,0823.5,5.00,000.00,018.7,017.9,000.0,027.1,020.0,18.9,0001.1,0008.98,0006.25,0005.96
2024-01-05 15:10:00,SystemResetWarning,0823.5,5.01,000.00,018.7,017.9,000.0,027.1,020.0,19.0,0001.3,0008.95,0006.24,0005.96
2024-01-05 15:11:00,SystemResetWarning,0823.5,5.01,000.00,018.7,017.9,000.0,027.1,020.0,19.2,0001.7,0008.97,0006.25,0005.96
2024-01-05 15:12:00,SystemResetWarning,0823.5,5.00,000.00,018.7,017.9,000.0,027.1,020.0,19.3,0001.8,0009.06,0006.28,0005.98
2024-01-05 15:13:00,SystemResetWarning,0823.5,4.99,000.00,018.7,017.9,000.0,027.1,020.0,19.5,0001.8,0009.11,0006.33,0005.99
2024-01-05 15:14:00,SystemResetWarning,0823.6,4.99,000.00,018.7,017.9,000.0,027.1,020.0,19.7,0001.5,0009.16,0006.35,0005.99
2024-01-05 15:15:00,SystemResetWarning,0823.6,5.00,000.00,018.7,017.9,000.0,027.1,020.0,19.8,0002.1,0009.10,0006.34,0006.01
2024-01-05 15:16:00,SystemResetWarning,0823.6,5.02,000.00,018.7,018.0,000.0,027.1,020.0,19.9,0002.1,0009.06,0006.34,0006.03
2024-01-05 15:17:00,SystemResetWarning,0823.6,4.99,000.00,018.7,018.0,000.0,027.1,020.0,20.1,0002.2,0009.01,0006.33,0006.03
2024-01-05 15:18:00,SystemResetWarning,0823.6,4.99,000.00,018.7,018.0,000.0,027.1,020.0,20.3,0002.3,0009.02,0006.32,0006.03
2024-01-05 15:19:00,SystemResetWarning,0823.6,5.00,000.00,018.7,018.0,000.0,027.1,020.0,20.4,0002.7,0009.06,0006.33,0006.02
2024-01-05 15:20:00,SystemResetWarning,0823.6,5.01,000.00,018.7,018.0,000.0,027.1,020.0,20.6,0002.6,0008.95,0006.32,0006.02
2024-01-05 15:21:00,SystemResetWarning,0823.7,5.01,000.00,018.7,018.0,000.0,027.1,020.0,20.7,0002.6,0008.99,0006.34,0006.03
2024-01-05 15:22:00,SystemResetWarning,0823.7,5.01,000.00,018.7,018.0,000.0,027.1,020.0,20.7,0002.4,0009.03,0006.36,0006.03
2024-01-05 15:23:00,SystemResetWarning,0823.7,5.00,000.00,018.7,018.0,000.0,027.1,020.0,21.0,0002.6,0008.99,0006.35,0006.02
2024-01-05 15:24:00,SystemResetWarning,0823.7,4.99,000.00,018.7,018.0,000.0,027.1,020.0,21.0,0002.7,0008.93,0006.32,0005.99
2024-01-05 15:25:00,SystemResetWarning,0823.7,5.00,000.00,018.7,018.0,000.0,027.1,020.0,21.0,0002.7,0008.87,0006.28,0005.97
2024-01-05 15:26:00,SystemResetWarning,0823.7,5.01,000.00,018.7,018.0,000.0,027.1,020.0,21.1,0002.7,0008.92,0006.27,0005.94
2024-01-05 15:27:00,SystemResetWarning,0823.7,5.02,000.00,018.7,018.0,000.0,027.1,020.0,21.3,0003.0,0008.97,0006.27,0005.91
2024-01-05 15:28:00,SystemResetWarning,0823.7,5.00,000.00,018.7,018.0,000.0,027.1,020.0,21.5,0003.0,0009.22,0006.27,0005.90
2024-01-05 15:29:00,SystemResetWarning,0823.7,4.99,000.00,018.7,018.0,000.0,027.1,020.0,21.5,0002.9,0009.48,0006.26,0005.90
2024-01-05 15:30:00,SystemResetWarning,0823.6,4.99,000.00,018.7,018.0,000.0,027.1,020.0,21.6,0002.6,0009.42,0006.24,0005.90
2024-01-05 15:31:00,SystemResetWarning,0823.7,4.99,000.00,018.7,018.0,000.0,027.1,020.0,21.6,0002.5,0009.43,0006.22,0005.90
2024-01-05 15:32:00,SystemResetWarning,0823.6,5.00,000.00,018.7,018.0,000.0,027.1,020.0,21.7,0002.5,0009.46,0006.22,0005.90
2024-01-05 15:33:00,SystemResetWarning,0823.7,5.00,000.00,018.7,018.0,000.0,027.1,020.0,21.7,0002.0,0009.45,0006.22,0005.91
2024-01-05 15:34:00,SystemResetWarning,0823.7,5.00,000.00,018.7,018.0,000.0,027.1,020.0,21.7,0001.5,0009.42,0006.20,0005.92
2024-01-05 15:35:00,SystemResetWarning,0823.7,5.00,000.00,018.7,018.1,000.0,027.1,020.0,21.9,0001.5,0009.45,0006.23,0005.95
2024-01-05 15:36:00,SystemResetWarning,0823.7,5.00,000.00,018.7,018.1,000.0,027.1,020.0,21.9,0001.5,0009.59,0006.29,0006.00
2024-01-05 15:37:00,SystemResetWarning,0823.7,5.01,000.00,018.7,018.1,000.0,027.1,020.0,21.9,0001.1,0009.79,0006.33,0006.04
2024-01-05 15:38:00,SystemResetWarning,0823.7,5.00,000.00,018.7,018.1,000.0,027.1,020.0,21.9,0001.4,0009.79,0006.36,0006.07
2024-01-05 15:39:00,SystemResetWarning,0823.7,5.00,000.00,018.7,018.1,000.0,027.1,020.0,22.0,0001.7,0009.78,0006.40,0006.12
2024-01-05 15:40:00,SystemResetWarning,0823.8,5.00,000.00,018.7,018.1,000.0,027.1,020.0,21.9,0001.6,0009.46,0006.46,0006.16
2024-01-05 15:41:00,SystemResetWarning,0823.8,5.01,000.00,018.7,018.1,000.0,027.1,020.0,21.9,0001.4,0009.58,0006.53,0006.20
2024-01-05 15:42:00,SystemResetWarning,0823.8,5.00,000.00,018.7,018.1,000.0,027.1,020.0,21.9,0001.7,0009.66,0006.59,0006.24
2024-01-05 15:43:00,SystemResetWarning,0823.8,5.00,000.00,018.7,018.1,000.0,027.1,020.0,21.9,0002.0,0009.69,0006.64,0006.28
2024-01-05 15:44:00,SystemResetWarning,0823.8,5.00,000.00,018.7,018.1,000.0,027.1,020.0,21.9,0002.4,0009.74,0006.70,0006.30
2024-01-05 15:45:00,SystemResetWarning,0823.8,5.00,000.00,018.7,018.1,000.0,027.1,020.1,21.8,0002.7,0009.81,0006.73,0006.33
2024-01-05 15:46:00,SystemResetWarning,0823.8,5.00,000.00,018.7,018.1,000.0,027.1,020.0,21.8,0002.4,0009.84,0006.76,0006.35
2024-01-05 15:47:00,SystemResetWarning,0823.8,5.00,000.00,018.7,018.2,000.0,027.1,020.1,21.8,0002.7,0009.84,0006.77,0006.36
2024-01-05 15:48:00,SystemResetWarning,0823.8,5.00,000.00,018.7,018.2,000.0,027.1,020.0,21.7,0002.8,0009.64,0006.77,0006.36
2024-01-05 15:49:00,SystemResetWarning,0823.8,5.00,000.00,018.8,018.2,000.0,027.1,020.1,21.6,0002.5,0009.73,0006.74,0006.34
2024-01-05 15:50:00,SystemResetWarning,0823.8,4.99,000.00,018.8,018.2,000.0,027.1,020.1,21.3,0002.2,0009.76,0006.72,0006.31
2024-01-05 15:51:00,SystemResetWarning,0823.8,5.00,000.00,018.8,018.2,000.0,027.1,020.1,21.0,0002.3,0009.73,0006.69,0006.28
2024-01-05 15:52:00,SystemResetWarning,0823.8,5.00,000.00,018.8,018.2,000.0,027.1,020.1,20.5,0002.4,0009.58,0006.62,0006.23
2024-01-05 15:53:00,SystemResetWarning,0823.8,5.00,000.00,018.8,018.2,000.0,027.1,020.1,20.3,0002.3,0009.61,0006.59,0006.19
2024-01-05 15:54:00,SystemResetWarning,0823.8,4.99,000.00,018.8,018.2,000.0,027.1,020.1,20.0,0002.5,0009.59,0006.56,0006.15
2024-01-05 15:55:00,SystemResetWarning,0823.8,4.99,000.00,018.8,018.2,000.0,027.1,020.1,19.8,0002.3,0009.50,0006.49,0006.10
2024-01-05 15:56:00,SystemResetWarning,0823.8,5.01,000.00,018.8,018.2,000.0,027.1,020.1,19.7,0002.1,0009.39,0006.43,0006.05
2024-01-05 15:57:00,SystemResetWarning,0823.8,5.00,000.00,018.8,018.2,000.0,027.1,020.1,19.4,0002.3,0009.71,0006.39,0006.00
2024-01-05 15:58:00,SystemResetWarning,0823.8,5.00,000.00,018.8,018.2,000.0,027.1,020.1,19.1,0002.2,0009.83,0006.36,0005.98
2024-01-05 15:59:00,SystemResetWarning,0823.8,5.01,000.00,018.8,018.2,000.0,027.1,020.1,18.9,0002.1,0009.79,0006.33,0005.95
